TimeEDT,TemperatureF,Dew PointF,Humidity,Sea Level PressureIn,VisibilityMPH,Wind Direction,Wind SpeedMPH,Gust SpeedMPH,PrecipitationIn,Events,Conditions,WindDirDegrees,DateUTC
12:15 AM,28.9,20.1,70,30.15,10.0,East,9.2,-,N/A,,Clear,100,2013-03-18 04:15:00
12:35 AM,28.9,20.1,70,30.14,10.0,East,9.2,-,N/A,,Clear,90,2013-03-18 04:35:00
12:55 AM,28.9,20.7,71,30.13,10.0,East,10.4,-,N/A,,Clear,90,2013-03-18 04:55:00
1:15 AM,29.3,20.8,71,30.12,10.0,East,6.9,17.3,N/A,,Clear,90,2013-03-18 05:15:00
1:35 AM,29.7,21.0,70,30.11,10.0,East,10.4,16.1,N/A,,Clear,100,2013-03-18 05:35:00
1:55 AM,29.8,21.6,71,30.10,10.0,East,9.2,17.3,N/A,,Clear,90,2013-03-18 05:55:00
2:15 AM,30.0,22.1,72,30.10,10.0,East,9.2,16.1,N/A,,Clear,100,2013-03-18 06:15:00
2:35 AM,30.6,21.9,70,30.10,10.0,East,9.2,18.4,N/A,,Clear,100,2013-03-18 06:35:00
2:55 AM,30.6,22.1,71,30.09,10.0,East,9.2,-,N/A,,Clear,100,2013-03-18 06:55:00
3:15 AM,30.7,22.1,70,30.07,10.0,East,11.5,17.3,N/A,,Clear,90,2013-03-18 07:15:00
3:35 AM,30.9,22.1,70,30.06,10.0,East,9.2,20.7,N/A,,Clear,90,2013-03-18 07:35:00
3:55 AM,31.1,22.6,71,30.04,10.0,East,10.4,16.1,N/A,,Clear,100,2013-03-18 07:55:00
4:15 AM,31.1,22.8,71,30.01,10.0,East,8.1,17.3,N/A,,Clear,90,2013-03-18 08:15:00
4:35 AM,31.1,22.5,70,29.99,10.0,East,12.7,21.9,N/A,,Clear,90,2013-03-18 08:35:00
4:55 AM,31.1,23.0,72,29.99,10.0,East,11.5,19.6,N/A,,Clear,90,2013-03-18 08:55:00
5:15 AM,31.5,23.0,71,29.97,10.0,East,11.5,19.6,N/A,,Clear,90,2013-03-18 09:15:00
5:35 AM,31.8,23.0,70,29.96,10.0,East,11.5,20.7,N/A,,Clear,90,2013-03-18 09:35:00
5:55 AM,31.8,23.0,70,29.95,10.0,East,9.2,17.3,N/A,,Mostly Cloudy,90,2013-03-18 09:55:00
6:15 AM,32.0,23.2,70,29.93,10.0,East,12.7,20.7,N/A,,Overcast,90,2013-03-18 10:15:00
6:35 AM,32.0,23.4,70,29.93,10.0,ENE,9.2,19.6,N/A,,Overcast,70,2013-03-18 10:35:00
6:55 AM,32.0,23.7,71,29.91,10.0,East,9.2,20.7,N/A,,Overcast,80,2013-03-18 10:55:00
7:15 AM,32.0,23.7,71,29.90,10.0,East,12.7,21.9,N/A,,Overcast,80,2013-03-18 11:15:00
7:35 AM,32.0,24.3,73,29.90,7.0,East,10.4,20.7,N/A,Snow,Light Snow,80,2013-03-18 11:35:00
7:55 AM,31.8,24.8,75,29.89,7.0,East,9.2,18.4,N/A,Snow,Light Snow,90,2013-03-18 11:55:00
8:15 AM,31.6,25.2,77,29.88,7.0,East,10.4,18.4,N/A,Snow,Light Snow,80,2013-03-18 12:15:00
8:35 AM,31.5,25.7,79,29.87,3.0,East,11.5,20.7,N/A,Snow,Light Snow,80,2013-03-18 12:35:00
8:55 AM,31.5,26.4,82,29.86,4.0,ENE,11.5,18.4,N/A,Snow,Light Snow,70,2013-03-18 12:55:00
9:15 AM,31.6,27.0,83,29.83,5.0,East,9.2,20.7,N/A,Snow,Light Snow,80,2013-03-18 13:15:00
9:35 AM,31.6,27.1,83,29.83,5.0,ENE,9.2,19.6,N/A,,Overcast,70,2013-03-18 13:35:00
9:55 AM,31.8,27.7,85,29.82,4.0,East,10.4,19.6,N/A,,Overcast,80,2013-03-18 13:55:00
10:15 AM,32.0,28.4,87,29.82,2.5,East,11.5,17.3,N/A,,Overcast,80,2013-03-18 14:15:00
10:35 AM,32.0,28.4,87,29.79,4.0,East,12.7,24.2,N/A,,Overcast,90,2013-03-18 14:35:00
10:55 AM,32.0,29.1,89,29.79,2.0,East,10.4,17.3,N/A,,Overcast,90,2013-03-18 14:55:00
11:15 AM,32.0,29.3,90,29.76,1.8,East,11.5,19.6,N/A,,Overcast,90,2013-03-18 15:15:00
11:35 AM,32.2,29.8,91,29.76,1.5,East,11.5,16.1,N/A,,Overcast,80,2013-03-18 15:35:00
11:55 AM,32.4,30.2,92,29.75,1.5,East,10.4,19.6,N/A,,Overcast,90,2013-03-18 15:55:00
12:15 PM,32.5,30.6,92,29.75,1.0,East,9.2,16.1,N/A,,Overcast,90,2013-03-18 16:15:00
12:35 PM,32.5,30.7,93,29.74,1.5,East,8.1,17.3,N/A,,Overcast,80,2013-03-18 16:35:00
12:55 PM,32.9,31.1,93,29.73,2.0,East,10.4,16.1,N/A,,Overcast,100,2013-03-18 16:55:00
1:15 PM,33.1,31.1,92,29.71,2.5,East,10.4,-,N/A,,Overcast,80,2013-03-18 17:15:00
1:35 PM,33.3,31.6,94,29.70,2.0,East,8.1,-,N/A,,Overcast,80,2013-03-18 17:35:00
1:55 PM,33.8,32.0,93,29.68,2.5,East,8.1,-,N/A,,Overcast,90,2013-03-18 17:55:00
2:15 PM,33.8,32.0,93,29.67,3.0,East,5.8,-,N/A,,Overcast,80,2013-03-18 18:15:00
2:35 PM,34.0,32.0,92,29.65,2.5,East,8.1,-,N/A,,Overcast,90,2013-03-18 18:35:00
2:55 PM,34.3,32.2,92,29.63,1.5,East,8.1,-,N/A,Rain,Light Rain,90,2013-03-18 18:55:00
3:15 PM,34.7,32.5,92,29.61,1.8,East,8.1,-,N/A,,Overcast,90,2013-03-18 19:15:00
3:35 PM,35.4,33.1,91,29.59,1.2,East,6.9,-,N/A,,Overcast,90,2013-03-18 19:35:00
3:55 PM,35.8,33.8,92,29.57,1.5,East,8.1,-,N/A,,Overcast,100,2013-03-18 19:55:00
4:15 PM,36.0,33.8,92,29.59,1.5,East,6.9,-,N/A,,Overcast,100,2013-03-18 20:15:00
4:35 PM,36.0,33.8,92,29.58,1.2,East,4.6,-,N/A,,Overcast,90,2013-03-18 20:35:00
4:55 PM,36.0,34.0,93,29.57,1.2,East,3.5,-,N/A,,Overcast,80,2013-03-18 20:55:00
5:15 PM,36.0,34.0,93,29.56,1.5,East,4.6,-,N/A,,Overcast,100,2013-03-18 21:15:00
5:35 PM,35.8,33.8,92,29.56,1.0,Calm,Calm,-,N/A,,Overcast,0,2013-03-18 21:35:00
5:55 PM,36.0,34.0,93,29.56,1.0,Calm,Calm,-,N/A,,Overcast,0,2013-03-18 21:55:00
6:15 PM,36.0,34.0,93,29.57,1.2,Calm,Calm,-,N/A,,Overcast,0,2013-03-18 22:15:00
6:35 PM,36.1,34.2,93,29.55,0.8,Calm,Calm,-,N/A,,Drizzle,0,2013-03-18 22:35:00
6:55 PM,37.4,35.6,93,29.57,1.0,SW,5.8,-,N/A,Rain,Light Rain,230,2013-03-18 22:55:00
7:15 PM,38.3,36.5,93,29.58,2.5,WSW,11.5,21.9,N/A,,Overcast,240,2013-03-18 23:15:00
7:35 PM,37.4,35.6,93,29.59,5.0,WSW,12.7,20.7,N/A,,Overcast,240,2013-03-18 23:35:00
7:55 PM,37.0,34.7,91,29.59,5.0,WSW,12.7,19.6,N/A,,Overcast,240,2013-03-18 23:55:00
8:15 PM,36.7,34.2,91,29.60,7.0,WSW,12.7,19.6,N/A,,Overcast,240,2013-03-19 00:15:00
8:35 PM,36.7,34.0,90,29.61,7.0,WSW,15.0,21.9,N/A,,Overcast,240,2013-03-19 00:35:00
8:55 PM,36.7,33.8,89,29.62,7.0,WSW,15.0,19.6,N/A,,Overcast,240,2013-03-19 00:55:00
9:15 PM,36.5,33.4,89,29.63,5.0,WSW,15.0,19.6,N/A,,Overcast,250,2013-03-19 01:15:00
9:35 PM,36.5,33.4,89,29.64,7.0,WSW,11.5,24.2,N/A,,Overcast,240,2013-03-19 01:35:00
9:55 PM,36.5,33.1,87,29.65,7.0,WSW,15.0,24.2,N/A,,Overcast,250,2013-03-19 01:55:00
10:15 PM,36.3,33.1,88,29.65,4.0,WSW,12.7,21.9,N/A,,Light Drizzle,250,2013-03-19 02:15:00
10:35 PM,36.0,32.5,87,29.66,10.0,WSW,13.8,20.7,N/A,,Overcast,250,2013-03-19 02:35:00
10:55 PM,35.8,31.8,86,29.66,10.0,WSW,15.0,25.3,N/A,,Overcast,250,2013-03-19 02:55:00
11:15 PM,35.6,31.6,85,29.67,10.0,WSW,16.1,26.5,N/A,,Overcast,250,2013-03-19 03:15:00
11:55 PM,35.6,31.1,84,29.68,10.0,WSW,12.7,23.0,N/A,,Overcast,250,2013-03-19 03:55:00